| time (UTC) | temp C | wind direction | speed KPH | gust KPH | rain 1hr cm | rain 24hr cm | rain mn cm | humidity % | barometer mb |
| 20260905234609 | 14 | 126 | 4.8 | 4.8 | 0.00 | 0.00 | 0.00 | 67 | 981.5 |
| 20260905232544 | 15 | 134 | 3.2 | 3.2 | 0.00 | 0.00 | 0.00 | 64 | 981.3 |
| 20260905231544 | 15 | 122 | 3.2 | 3.2 | 0.00 | 0.00 | 0.00 | 63 | 981.2 |
| 20260905230544 | 15 | 267 | 3.2 | 3.2 | 0.00 | 0.00 | 0.00 | 62 | 981.1 |
| 20260905225530 | 15 | 101 | 3.2 | 3.2 | 0.00 | 0.00 | 0.00 | 62 | 981.0 |
| 20260905223455 | 16 | 204 | 3.2 | 3.2 | 0.00 | 0.00 | 0.00 | 60 | 980.8 |
| 20260905222454 | 15 | 113 | 4.8 | 6.4 | 0.00 | 0.00 | 0.00 | 63 | 980.7 |
| 20260905221440 | 15 | 257 | 1.6 | 1.6 | 0.00 | 0.00 | 0.00 | 65 | 980.4 |
| 20260905215414 | 13 | 168 | 0.0 | 0.0 | 0.00 | 0.18 | 0.18 | 81 | 980.3 |
| 20260905214414 | 13 | 127 | 0.0 | 0.0 | 0.00 | 0.18 | 0.18 | 76 | 980.4 |
| 20260905213404 | 13 | 330 | 0.0 | 0.0 | 0.00 | 0.18 | 0.18 | 75 | 980.4 |
| 20260905211338 | 13 | 180 | 0.0 | 0.0 | 0.00 | 0.18 | 0.18 | 76 | 980.2 |
| 20260905210325 | 13 | 216 | 0.0 | 0.0 | 0.00 | 0.18 | 0.18 | 76 | 980.3 |
| 20260905204259 | 13 | 228 | 0.0 | 0.0 | 0.00 | 0.18 | 0.18 | 76 | 980.3 |
| 20260905203249 | 13 | 228 | 0.0 | 0.0 | 0.00 | 0.18 | 0.18 | 75 | 980.3 |
| 20260905202249 | 14 | 234 | 0.0 | 0.0 | 0.00 | 0.18 | 0.18 | 73 | 980.3 |
| 20260905201235 | 14 | 252 | 0.0 | 0.0 | 0.00 | 0.18 | 0.18 | 69 | 980.3 |
| 20260905195159 | 14 | 244 | 0.0 | 0.0 | 0.00 | 0.18 | 0.18 | 71 | 980.2 |
| 20260905194144 | 13 | 228 | 0.0 | 0.0 | 0.00 | 0.18 | 0.18 | 71 | 980.2 |
| 20260905193134 | 14 | 228 | 0.0 | 0.0 | 0.00 | 0.18 | 0.18 | 70 | 980.0 |
| 20260905191109 | 13 | 268 | 0.0 | 0.0 | 0.00 | 0.18 | 0.18 | 71 | 979.9 |
| 20260905190054 | 14 | 196 | 0.0 | 0.0 | 0.00 | 0.18 | 0.18 | 71 | 979.9 |
| 20260905185044 | 15 | 204 | 0.0 | 0.0 | 0.00 | 0.18 | 0.18 | 68 | 979.9 |
| 20260905183004 | 15 | 160 | 0.0 | 0.0 | 0.00 | 0.18 | 0.18 | 70 | 979.8 |
| 20260905182004 | 15 | 204 | 0.0 | 0.0 | 0.00 | 0.18 | 0.18 | 67 | 979.8 |
| 20260905180954 | 15 | 276 | 0.0 | 0.0 | 0.00 | 0.18 | 0.18 | 63 | 979.8 |
| 20260905174914 | 15 | 228 | 0.0 | 0.0 | 0.00 | 0.18 | 0.18 | 64 | 979.6 |
| 20260905173904 | 15 | 231 | 0.0 | 0.0 | 0.00 | 0.18 | 0.18 | 61 | 979.7 |
| 20260905171824 | 16 | 210 | 0.0 | 0.0 | 0.00 | 0.18 | 0.18 | 60 | 979.5 |
| 20260905170824 | 16 | 174 | 0.0 | 0.0 | 0.00 | 0.18 | 0.18 | 59 | 979.5 |
| 20260905165814 | 16 | 168 | 0.0 | 0.0 | 0.00 | 0.18 | 0.18 | 61 | 979.3 |
| 20260905163736 | 17 | 156 | 0.0 | 0.0 | 0.00 | 0.18 | 0.18 | 60 | 979.2 |
| 20260905162736 | 17 | 257 | 0.0 | 0.0 | 0.00 | 0.18 | 0.18 | 59 | 979.1 |
| 20260905161723 | 18 | 156 | 0.0 | 0.0 | 0.00 | 0.18 | 0.18 | 57 | 978.9 |
| 20260905155711 | 18 | 168 | 1.6 | 1.6 | 0.00 | 0.18 | 0.18 | 59 | 978.7 |
| 20260905154657 | 18 | 177 | 1.6 | 1.6 | 0.00 | 0.18 | 0.18 | 59 | 978.6 |
| 20260905153646 | 19 | 156 | 0.0 | 0.0 | 0.00 | 0.18 | 0.18 | 56 | 978.6 |
| 20260905152632 | 19 | 177 | 1.6 | 1.6 | 0.00 | 0.18 | 0.18 | 56 | 978.6 |
| 20260905150556 | 19 | 313 | 3.2 | 3.2 | 0.00 | 0.18 | 0.18 | 56 | 978.6 |
| 20260905145556 | 20 | 150 | 4.8 | 4.8 | 0.00 | 0.18 | 0.18 | 57 | 978.6 |
| 20260905144542 | 20 | 183 | 3.2 | 3.2 | 0.00 | 0.18 | 0.18 | 55 | 978.4 |
| 20260905142517 | 20 | 144 | 3.2 | 3.2 | 0.00 | 0.18 | 0.18 | 55 | 978.4 |
| 20260905141517 | 20 | 292 | 4.8 | 6.4 | 0.00 | 0.18 | 0.18 | 58 | 978.5 |
| 20260905140507 | 20 | 112 | 3.2 | 3.2 | 0.00 | 0.18 | 0.18 | 57 | 978.5 |
| 20260905134427 | 20 | 115 | 3.2 | 3.2 | 0.00 | 0.18 | 0.18 | 57 | 978.4 |
| 20260905133427 | 20 | 124 | 3.2 | 3.2 | 0.00 | 0.18 | 0.18 | 56 | 978.3 |
| 20260905132417 | 20 | 145 | 3.2 | 3.2 | 0.00 | 0.18 | 0.18 | 57 | 978.4 |
| 20260905130351 | 21 | 96 | 3.2 | 3.2 | 0.00 | 0.18 | 0.18 | 54 | 978.3 |
| 20260905125326 | 21 | 174 | 6.4 | 6.4 | 0.00 | 0.18 | 0.18 | 53 | 978.3 |
| 20260905124300 | 20 | 97 | 3.2 | 3.2 | 0.00 | 0.18 | 0.18 | 53 | 978.3 |
| 20260905122248 | 21 | 175 | 3.2 | 3.2 | 0.00 | 0.18 | 0.18 | 53 | 978.6 |
| 20260905121223 | 21 | 318 | 4.8 | 4.8 | 0.00 | 0.18 | 0.18 | 54 | 978.6 |
| 20260905120212 | 19 | 174 | 3.2 | 3.2 | 0.00 | 0.18 | 0.18 | 59 | 978.8 |
| 20260905114121 | 18 | 132 | 3.2 | 3.2 | 0.00 | 0.18 | 0.18 | 60 | 978.9 |
| 20260905113056 | 19 | 108 | 6.4 | 6.4 | 0.00 | 0.18 | 0.18 | 60 | 979.0 |
| 20260905112042 | 20 | 299 | 8.0 | 9.7 | 0.00 | 0.18 | 0.18 | 60 | 979.0 |
| 20260905110019 | 19 | 254 | 6.4 | 6.4 | 0.00 | 0.18 | 0.18 | 60 | 979.2 |
| 20260905105018 | 18 | 206 | 3.2 | 3.2 | 0.00 | 0.18 | 0.18 | 63 | 979.1 |
| 20260905104005 | 18 | 175 | 3.2 | 3.2 | 0.00 | 0.18 | 0.18 | 62 | 978.9 |
| 20260905101928 | 17 | 108 | 3.2 | 3.2 | 0.00 | 0.18 | 0.18 | 68 | 978.7 |
| 20260905100914 | 17 | 274 | 9.7 | 9.7 | 0.00 | 0.18 | 0.18 | 71 | 978.4 |
| 20260905095904 | 17 | 193 | 3.2 | 3.2 | 0.00 | 0.18 | 0.18 | 69 | 978.6 |
| 20260905093838 | 16 | 162 | 1.6 | 1.6 | 0.00 | 0.18 | 0.18 | 69 | 978.6 |
| 20260905092824 | 16 | 156 | 6.4 | 6.4 | 0.00 | 0.18 | 0.18 | 72 | 978.6 |
| 20260905091814 | 16 | 120 | 0.0 | 0.0 | 0.00 | 0.18 | 0.18 | 72 | 978.8 |
| 20260905085748 | 15 | 138 | 3.2 | 3.2 | 0.00 | 0.18 | 0.18 | 73 | 978.6 |
| 20260905084748 | 15 | 174 | 3.2 | 3.2 | 0.00 | 0.18 | 0.18 | 72 | 978.2 |
| 20260905083748 | 16 | 299 | 3.2 | 3.2 | 0.00 | 0.18 | 0.18 | 74 | 978.3 |
| 20260905082735 | 16 | 359 | 6.4 | 8.0 | 0.00 | 0.18 | 0.18 | 74 | 978.4 |
| 20260905080709 | 16 | 198 | 1.6 | 1.6 | 0.00 | 0.18 | 0.18 | 80 | 978.3 |
| 20260905075709 | 16 | 114 | 3.2 | 3.2 | 0.00 | 0.18 | 0.18 | 78 | 978.2 |
| 20260905074659 | 16 | 186 | 1.6 | 1.6 | 0.00 | 0.18 | 0.18 | 82 | 978.2 |
| 20260905072633 | 15 | 139 | 3.2 | 3.2 | 0.00 | 0.18 | 0.18 | 83 | 978.0 |
| 20260905071633 | 15 | 135 | 1.6 | 1.6 | 0.00 | 0.18 | 0.18 | 82 | 978.0 |
| 20260905070620 | 15 | 258 | 3.2 | 3.2 | 0.00 | 0.18 | 0.18 | 82 | 977.9 |
| 20260905064543 | 16 | 114 | 3.2 | 3.2 | 0.00 | 0.18 | 0.18 | 81 | 977.5 |
| 20260905063543 | 15 | 12 | 1.6 | 1.6 | 0.00 | 0.18 | 0.18 | 82 | 977.3 |
| 20260905062543 | 16 | 126 | 0.0 | 0.0 | 0.00 | 0.18 | 0.18 | 82 | 977.2 |
| 20260905061530 | 15 | 186 | 1.6 | 1.6 | 0.00 | 0.18 | 0.18 | 80 | 977.0 |
| 20260905055504 | 15 | 132 | 0.0 | 0.0 | 0.00 | 0.18 | 0.18 | 82 | 976.9 |
| 20260905054453 | 15 | 200 | 3.2 | 3.2 | 0.00 | 0.18 | 0.18 | 84 | 976.9 |
| 20260905053440 | 15 | 102 | 0.0 | 0.0 | 0.00 | 0.18 | 0.18 | 84 | 976.6 |
| 20260905051414 | 15 | 219 | 1.6 | 1.6 | 0.00 | 0.18 | 0.18 | 83 | 976.3 |
| 20260905050414 | 15 | 219 | 3.2 | 3.2 | 0.00 | 0.18 | 0.18 | 83 | 976.0 |
| 20260905045404 | 15 | 342 | 1.6 | 1.6 | 0.00 | 0.18 | 0.18 | 85 | 976.3 |
| 20260905043338 | 15 | 161 | 0.0 | 0.0 | 0.00 | 0.18 | 0.18 | 86 | 975.9 |
| 20260905042338 | 15 | 145 | 3.2 | 3.2 | 0.00 | 0.18 | 0.18 | 86 | 976.0 |
| 20260905041325 | 15 | 240 | 0.0 | 0.0 | 0.05 | 0.18 | 0.18 | 89 | 975.9 |
| 20260905035248 | 14 | 180 | 0.0 | 0.0 | 0.18 | 0.18 | 0.18 | 90 | 975.9 |
| 20260905034248 | 15 | 115 | 0.0 | 0.0 | 0.18 | 0.18 | 0.18 | 89 | 975.9 |
| 20260905033235 | 15 | 180 | 0.0 | 0.0 | 0.18 | 0.18 | 0.18 | 90 | 976.0 |
| 20260905031158 | 15 | 174 | 0.0 | 0.0 | 0.18 | 0.18 | 0.18 | 90 | 975.8 |
| 20260905030156 | 15 | 186 | 0.0 | 0.0 | 0.15 | 0.15 | 0.15 | 88 | 976.0 |
| 20260905025146 | 15 | 186 | 3.2 | 3.2 | 0.13 | 0.13 | 0.13 | 84 | 975.9 |
| 20260905023121 | 18 | 116 | 3.2 | 3.2 | 0.00 | 0.00 | 0.00 | 66 | 975.6 |
| 20260905022107 | 18 | 283 | 3.2 | 3.2 | 0.00 | 0.00 | 0.00 | 66 | 975.3 |
| 20260905020043 | 19 | 138 | 1.6 | 1.6 | 0.00 | 0.00 | 0.00 | 65 | 974.9 |
| 20260905015029 | 19 | 120 | 4.8 | 6.4 | 0.00 | 0.00 | 0.00 | 65 | 974.6 |
| 20260905014019 | 20 | 96 | 3.2 | 3.2 | 0.00 | 0.00 | 0.00 | 65 | 974.6 |
| 20260905011939 | 19 | 102 | 1.6 | 1.6 | 0.00 | 0.00 | 0.00 | 66 | 974.1 |
| 20260905010939 | 19 | 184 | 1.6 | 1.6 | 0.00 | 0.00 | 0.00 | 66 | 973.9 |
| 20260905005929 | 18 | 138 | 3.2 | 3.2 | 0.00 | 0.00 | 0.00 | 65 | 973.5 |
| 20260905003903 | 20 | 101 | 4.8 | 4.8 | 0.00 | 0.00 | 0.00 | 62 | 973.1 |
| 20260905002903 | 20 | 156 | 0.0 | 0.0 | 0.00 | 0.00 | 0.00 | 61 | 972.9 |
| 20260905001849 | 20 | 217 | 3.2 | 3.2 | 0.00 | 0.00 | 0.00 | 59 | 972.0 |
| 20260904235824 | 20 | 348 | 3.2 | 3.2 | 0.00 | 0.00 | 0.00 | 58 | 971.7 |